This is the latest recevied weather packets stored in our database for station/object SV5DDT-12. If no packets are shown the sender has not sent any weather packets the latest 10 day(s).
| Time | Temp. | Humidity | Pressure | Rain* | Wind** | Luminosity | Snow |
|---|---|---|---|---|---|---|---|
| 1777908590 | 22.22° C | 46% | 1014.8 hPa | - | - | - | - |
| 1777907690 | 22.22° C | 46% | 1014.7 hPa | - | - | - | - |
| 1777906789 | 22.22° C | 47% | 1014.7 hPa | - | - | - | - |
| 1777905889 | 22.22° C | 47% | 1014.8 hPa | - | - | - | - |
| 1777904989 | 22.22° C | 47% | 1014.7 hPa | - | - | - | - |
| 1777904089 | 22.22° C | 48% | 1014.6 hPa | - | - | - | - |
| 1777903189 | 22.22° C | 48% | 1014.6 hPa | - | - | - | - |
| 1777902289 | 22.22° C | 49% | 1014.5 hPa | - | - | - | - |
| 1777901389 | 22.22° C | 50% | 1014.5 hPa | - | - | - | - |
| 1777900489 | 22.22° C | 49% | 1014.5 hPa | - | - | - | - |
| 1777899588 | 22.22° C | 47% | 1014.5 hPa | - | - | - | - |
| 1777898688 | 22.22° C | 47% | 1014.5 hPa | - | - | - | - |
| 1777897788 | 21.67° C | 47% | 1014.5 hPa | - | - | - | - |
| 1777896888 | 21.67° C | 46% | 1014.7 hPa | - | - | - | - |
| 1777895988 | 21.67° C | 45% | 1014.8 hPa | - | - | - | - |
| 1777895088 | 21.67° C | 45% | 1014.7 hPa | - | - | - | - |
| 1777894188 | 21.67° C | 44% | 1014.7 hPa | - | - | - | - |
| 1777893287 | 21.67° C | 44% | 1014.7 hPa | - | - | - | - |
| 1777892387 | 21.67° C | 43% | 1014.6 hPa | - | - | - | - |
| 1777891487 | 21.11° C | 43% | 1014.7 hPa | - | - | - | - |
| 1777890587 | 20.56° C | 41% | 1014.7 hPa | - | - | - | - |
| 1777889687 | 21.11° C | 42% | 1014.4 hPa | - | - | - | - |
| 1777888787 | 21.11° C | 42% | 1014.6 hPa | - | - | - | - |
| 1777887887 | 21.67° C | 45% | 1014.6 hPa | - | - | - | - |
| 1777886987 | 21.67° C | 45% | 1014.7 hPa | - | - | - | - |
* Rain since midnight (hover to see other rain measurements)
** Current wind speed in m/s (hover to see current wind gust speed)